Regional Weather Roundup
Issued by NWS

Home | Current Version | Previous Version | Graphics & Text | Print | Product List | Glossary On
Versions: 1 2 3 4 5 6 7 8 9 10 11 12 13 14 15 16 17 18 19 20 21 22 23 24 25 26 27 28 29 30 31 32 33 34 35 36 37 38 39 40 41 42 43 44 45 46 47 48 49 50
000
ASUS43 KMKX 080000
RWRWI

WISCONSIN REGIONAL WEATHER ROUNDUP
NATIONAL WEATHER SERVICE MILWAUKEE/SULLIVAN WI
600 PM CST WED DEC 07 2016

NOTE: "FAIR" INDICATES FEW OR NO CLOUDS BELOW 12,000 FEET WITH NO
SIGNIFICANT WEATHER AND/OR OBSTRUCTIONS TO VISIBILITY.

WIZ001-002-006>008-014>016-023>028-080100-
NORTHWEST WISCONSIN

CITY           SKY/WX    TMP DP  RH WIND       PRES   REMARKS
SUPERIOR ARPT  CLOUDY    19  14  80 SW18G26   29.94R HAZE    WCI   4
ASHLAND        FLURRIES  20  12  71 W17G25    29.90R WCI   5
6HR MIN TEMP:  19; 6HR MAX TEMP:  21; 6HR PCP: TRACE;

HAYWARD        FLURRIES  18   9  68 W10G23    29.93R WCI   6
6HR MIN TEMP:  17; 6HR MAX TEMP:  19; 6HR PCP: TRACE;

SIREN          CLOUDY    18  10  68 W14G24    30.00R WCI   5
CUMBERLAND     CLOUDY    18   9  68 W21G28    29.97S WCI   1
RICE LAKE      CLOUDY    19  11  73 SW16G22   30.00S WCI   4
CHETEK         CLOUDY    18  10  72 MISG      30.00R
LADYSMITH      FLURRIES  19  12  73 SW16G23   29.96S WCI   5
EAU CLAIRE     CLOUDY    19  11  70 W17       30.03S WCI   4
6HR MIN TEMP:  19; 6HR MAX TEMP:  20; 6HR PCP: TRACE;

MENOMONIE      CLOUDY    20  12  71 W16       30.04S WCI   5
NEW RICHMOND   MOCLDY    17   8  67 W20G29    30.04S WCI   1
OSCEOLA        CLOUDY    18  10  69 W15G24    30.08S WCI   4
$$

WIZ003>005-009-010-017-018-080100-
NORTH CENTRAL WISCONSIN

CITY           SKY/WX    TMP DP  RH WIND       PRES   REMARKS
MANITOWISH WTR LGT SNOW  16  13  87 W16G22    29.83S WCI   1
ARBOR VITAE    LGT SNOW  19  15  83 W9        29.84S WCI   8
WOODRUFF       LGT SNOW  19  15  83 W9        29.84S WCI   8
RHINELANDER    CLOUDY    19  12  74 W23G30    29.86R WCI   2
6HR MIN TEMP:  18; 6HR MAX TEMP:  20; 6HR PCP: TRACE;

EAGLE RIVER    FLURRIES  19  11  73 W8G21     29.82S WCI   8
LAND O LAKES   FLURRIES  18  11  77 W12G20    29.82R WCI   5
PHILLIPS       FLURRIES  17  12  79 SW15G21   29.88S WCI   3
TOMAHAWK       MOCLDY    17  11  76 W10G16    29.89S WCI   5
MEDFORD        FLURRIES  17  10  74 W17G24    29.93R WCI   2
MERRILL        CLOUDY    19  13  75 W17G23    29.92S WCI   4
$$

WIZ029-030-035-036-043>047-080100-
CENTRAL WISCONSIN

CITY           SKY/WX    TMP DP  RH WIND       PRES   REMARKS
WAUSAU         CLOUDY    19  12  74 W16G30    29.94R WCI   4
6HR MIN TEMP:  19; 6HR MAX TEMP:  20; 6HR PCP: TRACE;

MOSINEE        CLOUDY    19  14  79 W18G29    29.96R WCI   4
MARSHFIELD     CLOUDY    18  11  74 W14       29.97R WCI   4
6HR MIN TEMP:  18; 6HR MAX TEMP:  20; 6HR PCP: TRACE;

STEVENS POINT  CLOUDY    19  11  72 W15G23    29.98R WCI   5
WAUPACA        CLOUDY    24  14  66 W17       30.00R WCI  10
WAUTOMA        FLURRIES  21  14  74 W16G22    30.03R WCI   7
6HR MIN TEMP:  21; 6HR MAX TEMP:  23; 6HR PCP:  0.01;

WISC RAPIDS    CLOUDY    20  12  71 W10G25    30.02R WCI   9
6HR MIN TEMP:  20; 6HR MAX TEMP:  23;

CAMP DOUGLAS   NOT AVBL
$$

WIZ011>013-019>022-031-037>040-048>050-080100-
NORTHEAST WISCONSIN

CITY           SKY/WX    TMP DP  RH WIND       PRES   REMARKS
ANTIGO         FLURRIES  17  13  82 W14G25    29.88R WCI   3
SHAWANO        CLOUDY    24  13  63 W15G24    29.96R WCI  12
OCONTO         CLOUDY    23  12  63 W16G25    29.94R WCI  10
STURGEON BAY   CLOUDY    25  16  68 W13       29.93R WCI  14
6HR MIN TEMP:  25; 6HR MAX TEMP:  27; 6HR PCP:  0.01;

GREEN BAY      CLOUDY    26  15  63 W20G28    29.97R WCI  12
6HR MIN TEMP:  25; 6HR MAX TEMP:  29;

MANITOWOC      NOT AVBL
APPLETON       FLURRIES  21  12  68 W18G28    29.97R WCI   6
CLINTONVILLE   CLOUDY    23  12  63 W16G22    29.97R WCI  10
OSHKOSH        CLOUDY    22  13  68 W10G23    30.00R WCI  11
6HR MIN TEMP:  22; 6HR MAX TEMP:  24;

$$

WIZ032>034-041-042-053>061-080100-
SOUTHWEST WISCONSIN

CITY           SKY/WX    TMP DP  RH WIND       PRES   REMARKS
LA CROSSE      CLOUDY    22  13  68 W13       30.12S WCI  10
6HR MIN TEMP:  22; 6HR MAX TEMP:  24; 6HR PCP: TRACE;

SPARTA         FLURRIES  20  13  73 W13G20    30.09R WCI   8
VIROQUA        CLOUDY    18  12  77 W15G22    30.07S WCI   4
BOSCOBEL       CLOUDY    23  13  65 W13G20    30.15R WCI  11
6HR MIN TEMP:  21; 6HR MAX TEMP:  24; 6HR PCP: TRACE;

PRAIRIE DU CHI CLOUDY    23  13  64 W12G17    30.15F WCI  12
PLATTEVILLE    CLOUDY    20  15  80 W15       30.12F WCI   6
$$

WIZ056-057-062-063-064-067-068-080100-
SOUTH CENTRAL WISCONSIN

CITY           SKY/WX    TMP DP  RH WIND       PRES   REMARKS
REEDSBURG      CLOUDY    19  12  74 W17       30.08R WCI   4
BARABOO/DELLS  FLURRIES  19  12  73 W16G23    30.06S WCI   5
LONE ROCK      NOT AVBL
MINERAL POINT  FLURRIES  21  18  86 W16       30.09S WCI   7
MADISON        CLOUDY    20  13  74 VRB6      30.08R WCI  12
6HR MIN TEMP:  20; 6HR MAX TEMP:  23;

MIDDLETON      CLOUDY    22  15  75 W14G20    30.08S WCI   9
WATERTOWN      CLOUDY    20  14  79 SW12      30.07R WCI   7
MONROE         CLOUDY    21  14  73 W22       30.10S WCI   5
JANESVILLE     CLOUDY    21  16  79 W15       30.11R WCI   8
$$

WIZ051-052-058>065-066-070>072-080100-
SOUTHEAST WISCONSIN

CITY           SKY/WX    TMP DP  RH WIND       PRES   REMARKS
MILWAUKEE      MOCLDY    24  14  65 W16G24    30.07R WCI  11
6HR MIN TEMP:  24; 6HR MAX TEMP:  29;

WAUKESHA       MOCLDY    19  12  73 W18G28    30.06R WCI   4
MILWAUKEE/TIMM CLEAR     21  12  68 SW15G24   30.06R WCI   8
RACINE         PTCLDY    22  13  68 W20G28    30.09R WCI   7
6HR MIN TEMP:  22; 6HR MAX TEMP:  29;

BURLINGTON     MOCLDY    21  15  76 W16G23    30.09R WCI   7
KENOSHA        MOCLDY    23  15  71 W21G30    30.08R WCI   8
6HR MIN TEMP:  23; 6HR MAX TEMP:  28;

FOND DU LAC    CLOUDY    22  11  62 W15G26    30.03R WCI   9
6HR MIN TEMP:  22; 6HR MAX TEMP:  24;

SHEBOYGAN      CLOUDY    22  13  68 W15G25    30.01R WCI   9
6HR MIN TEMP:  22; 6HR MAX TEMP:  25;

WEST BEND      CLEAR     21  16  79 W17       30.02R WCI   7
JUNEAU         CLOUDY    19  13  77 SW16      30.06R WCI   5
$$

LSZ147-162-080100-
LAKE SUPERIOR

STATION/POSITION TIME  TEMP    WIND        PRES    WAVE
                       AIR SEA DIR/SP/G            HT/PER
                 (UTC) (F)     (DEG/KT/KT) (MB)    (FT/S)
DEVILS ISLAND    2300   26     250/ 31/ 37 1010.8R
PORT WING        2340   22     230/ 15/ 21 1012.5S
SAXON HARBOR     2340   21     230/  8/ 17 1012.2S
$$

LMZ867-665-643>646-080100-
LAKE MICHIGAN

STATION/POSITION TIME  TEMP    WIND        PRES    WAVE
                       AIR SEA DIR/SP/G            HT/PER
                 (UTC) (F)     (DEG/KT/KT) (MB)    (FT/S)
CHAMBERS ISLAND  2340   24     240/ 14/ 27 1012.5R
NORTHPORT PIER   2340   25     270/  9/ 19 1012.5R
SISTER BAY       2309   27     300/ 23/ 28   N/A
ALGOMA LAKESHORE 2151          270/ 15/ 24   N/A
KEWAUNEE LAKESHO 2324   25     270/ 10/ 18 1013.9
SHEBOYGAN LAKESH 2300   23     260/ 15/ 18 1016.9R
PORT WASHINGTON  2330   23     260/  5/  8 1017.9R
MILWAUKEE LAKESH 2330   24     250/ 17/ 21   N/A
KENOSHA   LAKESH 2300   25     260/ 18/ 23 1018.3
$$

TC  - TEMPERATURE IN CELSIUS
VSB - VISIBILITY IN STATUTE MILES
WCI - WIND CHILL INDEX
HX  - HEAT INDEX





USA.gov is the U.S. government's official web portal to all federal, state and local government web resources and services.